User: anonymous   Login
Location: Unspecified
(0.0000°N, 0.0000°E)
Time: 04:32:22
(UTC+00:00)
Language:

ITAMSAT 1 - Orbit

View from above orbital plane
View from above orbital plane
View from above satellite
View from above satellite

Ground track
Ground track

The orbit data is extracted from the following two-line orbital elements,

1 22826U 93061D   18350.53116968  .00000011  00000-0  22063-4 0  9994
2 22826  98.8791 330.1684 0009223 158.3582 201.7991 14.30379435315824
Epoch (UTC): 16 December 2018 12:44:53
Eccentricity: 0.0009223
inclination: 98.8791°
perigee height: 784 km
apogee height: 797 km
right ascension of ascending node: 330.1684°
argument of perigee: 158.3582°
revolutions per day: 14.30379435
mean anomaly at epoch: 201.7991°
orbit number at epoch: 31582

The dashed part of the orbit path shows where the satellite is in the earth's shadow,  

DLR